Regional Weather Roundup
Issued by NWS Mt. Holly, NJ

Current Version | Previous Version | Text Only | Print | Product List | Glossary On
Versions: 1 2 3 4 5 6 7 8 9 10 11 12 13 14 15 16 17 18 19 20 21 22 23 24 25 26 27 28 29 30 31 32 33 34 35 36 37 38 39 40 41 42 43 44 45 46 47 48 49 50
000
ASUS41 KPHI 021912
RWRPHI

REGIONAL WEATHER ROUNDUP
NATIONAL WEATHER SERVICE MOUNT HOLLY NJ
300 PM EDT TUE JUN 02 2015

NOTE:  "FAIR" INDICATES FEW OR NO CLOUDS BELOW 12,000 FEET WITH NO
SIGNIFICANT WEATHER AND/OR OBSTRUCTIONS TO VISIBILITY.

 * = STATION DOES NOT REPORT PRECIPITATION (E.G. RAIN, SNOW, ETC.)
        OR FOG.

NJZ015>026-022000-
SOUTHERN NEW JERSEY

CITY           SKY/WX    TMP DP  RH WIND       PRES   REMARKS
POMONA         LGT RAIN  56  54  93 NE9       30.10S FOG
RIO GRANDE*    CLOUDY   N/A N/A N/A NE12G20   30.09S
MILLVILLE      CLOUDY    58  54  86 NE10      30.09S
WRIGHTSTOWN    LGT RAIN  55  54  94 NE9       30.09F
MOUNT HOLLY    LGT RAIN  55  52  89 NE8       30.11F
TRENTON        LGT RAIN  55  53  93 NE9       30.12F

$$
NJZ001>014-022000-
NORTHERN NEW JERSEY

CITY           SKY/WX    TMP DP  RH WIND       PRES   REMARKS
SUSSEX         RAIN      54  50  86 NE6       30.15F FOG
ANDOVER*         N/A     53  51  93 NE6       30.14F
MORRISTOWN     LGT RAIN  61  57  88 NE8       30.14F FOG
NEWARK         LGT RAIN  57  53  86 NE9       30.14S
TETERBORO      LGT RAIN  54  50  86 N3        30.13F
CALDWELL       LGT RAIN  54  51  90 NE6       30.14F
SOMERVILLE     RAIN      55  52  89 N3        30.11F FOG
ALLAIRE*       CLOUDY    54  46  76 NE8       30.13S
TOMS RIVER*    CLOUDY   N/A N/A N/A NE8       30.12S

$$
PAZ043-044-047-054-055-060>062-066>071-022000-
EASTERN PENNSYLVANIA

CITY           SKY/WX    TMP DP  RH WIND       PRES   REMARKS
PHILADELPHIA   LGT RAIN  57  53  86 NE8       30.12F FOG
NORTH PHILA    LGT RAIN  57  51  80 NE9       30.13F
BLUE BELL      CLOUDY    55  54  94 CALM      30.11F
DOYLESTOWN     LGT RAIN  54  53  97 N6        30.12S
QUAKERTOWN*    CLOUDY    54  52  94 NE7       30.14S
POTTSTOWN      LGT RAIN  54  53  97 NE6       30.14S
LANCASTER      LGT RAIN  55  53  93 NE9       30.12F
COATESVILLE    LGT RAIN  54  54 100 N7        30.12F
READING        RAIN      54  52  93 NE5       30.12F
ALLENTOWN      LGT RAIN  55  54  94 N3        30.13F
MOUNT POCONO   LGT RAIN  53  50  89 N3        30.14F
HAZLETON       LGT RAIN  54  52  94 N5        30.16F
WILKES BARRE   LGT RAIN  57  53  86 CALM      30.13F

$$
DEZALL-MDZ008-012-015-019-020-022000-
DELAWARE AND EASTERN MARYLAND

CITY           SKY/WX    TMP DP  RH WIND       PRES   REMARKS
WILMINGTON     LGT RAIN  55  53  93 NE14      30.12S FOG
DOVER          CLOUDY    57  57 100 N12       30.06S
GEORGETOWN     CLOUDY    60  56  86 NE14      30.08S
EASTON         CLOUDY    59  59 100 NE10      30.11S FOG
ABERDEEN       DRIZZLE   57  50  77 E9        30.09S FOG
PATUXENT       DRIZZLE   63  61  93 N15       30.05R FOG
OCEAN CITY     CLOUDY    63  59  87 NE17G23   30.05S
WALLOPS ISLAND CLOUDY    66  64  93 NE18      30.03F
CAMBRIDGE      CLOUDY    63  59  88 NE7       30.05F
SALISBURY      CLOUDY    62  58  86 NE14G21   30.05S

$$
PAZ001-021-NYZ056-072-MDZ011-DCZ001-022000-
OTHER NEARBY LOCATIONS

CITY           SKY/WX    TMP DP  RH WIND       PRES   REMARKS
HARRISBURG     LGT RAIN  59  55  87 N3        30.12F
STATE COLLEGE  CLOUDY    59  54  82 NE8       30.15F
WILLIAMSPORT   CLOUDY    62  50  64 N10       30.13F
BINGHAMTON     CLOUDY    56  49  77 NW7       30.16S
NEW YORK CITY  RAIN      54  50  86 VRB6      30.16F FOG
BALTIMORE      CLOUDY    59  55  87 NE9       30.09F
WASHINGTON DC  CLOUDY    64  58  80 NE14      30.09F

$$


USA.gov is the U.S. government's official web portal to all federal, state and local government web resources and services.